Weather History for Capitan Corbeta, Uruguay

Change the Weather History Date:

Wednesday, November 21, 2012

  Actual Average Record
Temperature  
Mean Temperature 72 °F -  
Max Temperature 84 °F 74 °F 86 °F (2005)
Min Temperature 60 °F 58 °F 51 °F (2000)
Cooling Degree Days 7    
Growing Degree Days 22 (Base 50)    
Moisture  
Dew Point 60 °F    
Average Humidity 73    
Maximum Humidity 88    
Minimum Humidity 48    
Precipitation  
Precipitation 0.00 in - - ()
Sea Level Pressure  
Sea Level Pressure 29.92 in    
Wind  
Wind Speed 11 mph ()    
Max Wind Speed 17 mph    
Max Gust Speed -    
Visibility 6.2 miles    
Events      
Averages and records for this station are not official NWS values.
T = Trace of Precipitation, MM = Missing Value Source: Averaged Metar Reports

Daily Weather History Graph

Daily Weather History Graph

Search for Another Location

Airport:

Trip Planner

Search our weather history database for the weather conditions in past years. The results will help you decide how hot, cold, wet, or windy it might be!

Date:

Astronomy

Nov. 21, 2012 Rise Set
Actual Time 6:23 AM UYST 8:30 PM UYST
Civil Twilight 5:54 AM UYST 8:58 PM UYST
Nautical Twilight 5:20 AM UYST 9:33 PM UYST
Astronomical Twilight 4:42 AM UYST 10:10 PM UYST
Moon 2:19 PM UYST 2:14 AM UYST
Length of Visible Light 15h 03m
Length of Day
14h 07m
First Quarter, 60% of the Moon is Illuminated
Nov 21
First Quarter
Nov 28
Full
Dec 6
Last Quarter
Dec 13
New
Dec 20
First Quarter

Hourly Weather History & Observations

Time (UYST) Temp. Heat Index Dew Point Humidity Pressure Visibility Wind Dir Wind Speed Gust Speed Precip Events Conditions
12:00 AM 62.6 °F - 57.2 °F 82% 29.95 in 6.2 mi ENE 8.1 mph - N/A   Partly Cloudy
1:00 AM 62.6 °F - 59.0 °F 88% 29.95 in 6.2 mi ENE 6.9 mph - N/A   Partly Cloudy
2:00 AM 62.6 °F - 59.0 °F 88% 29.95 in 6.2 mi ENE 9.2 mph - N/A   Partly Cloudy
3:00 AM 62.6 °F - 59.0 °F 88% 29.92 in 6.2 mi ENE 11.5 mph - N/A   Partly Cloudy
4:00 AM 62.6 °F - 59.0 °F 88% 29.92 in - ENE 17.3 mph - N/A   Clear
6:00 AM 60.8 °F - 57.2 °F 88% 29.95 in - ENE 12.7 mph - N/A   Clear
7:00 AM 60.8 °F - 57.2 °F 88% 29.95 in - ENE 15.0 mph - N/A   Clear
7:20 AM 62.6 °F - 59.0 °F 88% 29.95 in 6.2 mi ENE 15.0 mph - N/A   Mostly Cloudy
8:00 AM 62.6 °F - 59.0 °F 88% 29.95 in 6.2 mi NE 12.7 mph - N/A   Mostly Cloudy
9:00 AM 66.2 °F - 59.0 °F 78% 29.95 in 6.2 mi NE 16.1 mph - N/A   Partly Cloudy
10:00 AM 69.8 °F - 60.8 °F 73% 29.95 in 6.2 mi NE 17.3 mph - N/A   Scattered Clouds
11:00 AM 73.4 °F - 60.8 °F 65% 29.95 in 6.2 mi NNE 13.8 mph - N/A   Mostly Cloudy
12:00 PM 75.2 °F - 60.8 °F 61% 29.98 in - NNE 17.3 mph - N/A   Clear
1:00 PM 77.0 °F - 60.8 °F 57% 29.95 in - NE 13.8 mph - N/A   Clear
3:00 PM 80.6 °F 81.5 °F 60.8 °F 51% 29.92 in 6.2 mi NE 11.5 mph - N/A   Scattered Clouds
4:00 PM 82.4 °F 82.9 °F 60.8 °F 48% 29.92 in 6.2 mi NNE 9.2 mph - N/A   Scattered Clouds
5:00 PM 84.2 °F 85.0 °F 62.6 °F 48% 29.89 in 6.2 mi NNE 11.5 mph - N/A   Scattered Clouds
6:00 PM 80.6 °F 82.3 °F 64.4 °F 58% 29.86 in - NE 11.5 mph - N/A   Clear
7:00 PM 80.6 °F 81.8 °F 62.6 °F 54% 29.86 in - NE 17.3 mph - N/A   Clear
8:00 PM 77.0 °F - 66.2 °F 69% 29.86 in - ENE 17.3 mph - N/A   Clear
9:00 PM 73.4 °F - 64.4 °F 73% 29.86 in - NE 17.3 mph - N/A   Clear
10:00 PM 68.0 °F - 60.8 °F 78% 29.83 in - ENE 12.7 mph - N/A   Clear
11:00 PM 66.2 °F - 59.0 °F 78% 29.80 in 6.2 mi NE 8.1 mph - N/A   Scattered Clouds